Weather Roundup
Issued by NWS

Home | Current Version | Previous Version | Graphics & Text | Print | Product List | Glossary Off
Versions: 1 2 3 4 5 6 7 8 9 10 11 12 13 14 15 16 17 18 19 20 21 22 23 24 25 26 27 28 29 30 31 32 33 34 35 36 37 38 39 40 41 42 43 44 45 46 47 48 49 50

848
NZUS93 KARX 262059
HRRWXR

CURRENT HOURLY OBSERVATIONS ACROSS
MUCH OF THE UPPER MISSISSIPPI VALLEY
NATIONAL WEATHER SERVICE LA CROSSE WI
400 PM CDT SAT MAY 26 2018


...SOUTHEAST MINNESOTA...


CITY           SKY/WX    TMP DP  RH WIND       PRES   REMARKS
ROCHESTER      FAIR      91  61  36 NW6       29.74F HX  91
ROCHESTER/MAYO FAIR      92  51  24 W7G17     29.74F
WINONA         FAIR      93  61  33 W5        29.70F HX  93
AUSTIN         FAIR      90  55  31 CALM      29.73F
ALBERT LEA     FAIR      91  45  19 NW7       29.73F
DODGE CENTER   FAIR      90  54  29 CALM      29.74F
PRESTON        FAIR      89  57  34 SE3       29.75F
OWATONNA       FAIR      93  52  24 W7        29.72F HX  90
FARIBAULT      FAIR      93  55  27 CALM      29.72S HX  91
$$

...ELSEWHERE IN MINNESOTA...


CITY           SKY/WX    TMP DP  RH WIND       PRES   REMARKS
MINNEAPOLIS    FAIR      93  54  26 W9        29.69F HX  91
INTNL FALLS    FAIR      81  57  43 W14G20    29.66S
DULUTH         FAIR      91  50  24 W15G23    29.66S
RED WING       FAIR      95  43  16 CALM      29.68S HX  91
REDWOOD FALLS  SUNNY     92  55  28 W9        29.71F HX  90
MANKATO        FAIR      92  51  24 NW7       29.72S
WORTHINGTON      N/A     91  52  26 NW18G24   29.77S
FAIRMONT       SUNNY     93  51  23 NW8       29.73F HX  90
$$

...SOUTHWEST WISCONSIN...


CITY           SKY/WX    TMP DP  RH WIND       PRES   REMARKS
LA CROSSE      FAIR      91  68  46 S8        29.71F HX  95
PRAIRIE DU CHI FAIR      88  64  43 S5        29.73F
BOSCOBEL       FAIR      91  66  43 SW6       29.73F HX  93
LONE ROCK      FAIR      90  67  46 W7        29.73F HX  93
PLATTEVILLE    FAIR      86  68  54 W5        29.77F
FORT MC COY    FAIR      90  57  33 SW8       29.73F
MAUSTON-NEW LI FAIR      91  63  40 SW8       29.73S HX  91
VIROQUA        FAIR      89  62  40 SW8       29.77S
WIS DELLS      FAIR      90  57  32 W7        29.75S
$$

...ELSEWHERE IN WISCONSIN...


CITY           SKY/WX    TMP DP  RH WIND       PRES   REMARKS
MILWAUKEE      FAIR      83  63  50 SE13      29.74F
MADISON        FAIR      88  59  37 SW6       29.73F
GREEN BAY      FAIR      90  60  36 SW8       29.69F
EAU CLAIRE     NOT AVBL
BLACK RVR FLS  FAIR      94  53  25 SW7       29.71F HX  91
MEDFORD        FAIR      88  55  32 W8        29.72F
WAUSAU         NOT AVBL
WIS RAPIDS     FAIR      93  57  29 SW12G21   29.72F HX  91
MARSHFIELD     FAIR      91  57  31 W12       29.71F
RICE LAKE      FAIR      91  52  26 SW9G20    29.71S
$$

...NORTHEAST IOWA...


CITY           SKY/WX    TMP DP  RH WIND       PRES   REMARKS
WATERLOO       PTSUNNY   91  62  37 W7        29.72F HX  91
DUBUQUE        FAIR      87  63  44 CALM      29.77F
DECORAH        FAIR      86  66  51 S6G13     29.74F
MASON CITY     SUNNY     92  59  33 SW10      29.74F HX  91
CHARLES CITY   FAIR      91  57  31 CALM      29.74F HX  90
OELWEIN        FAIR      90  64  43 SE7       29.76S HX  91
$$

...ELSEWHERE IN IOWA...


CITY           SKY/WX    TMP DP  RH WIND       PRES   REMARKS
DES MOINES     MOSUNNY   95  63  34 VRB5      29.72F HX  96
IOWA CITY      FAIR      91  62  37 SE5       29.76F HX  91
FORT DODGE     SUNNY     95  53  24 N9        29.74F HX  92
MARSHALLTOWN   SUNNY     94  66  39 N5        29.73S HX  97
CEDAR RAPIDS   FAIR      90  65  43 SE7       29.75F HX  92
$$

...NORTHERN ILLINOIS...


CITY           SKY/WX    TMP DP  RH WIND       PRES   REMARKS
CHICAGO-OHARE  FAIR      89  59  36 W8        29.74F
CHICAGO-MIDWAY FAIR      87  62  43 VRB3      29.75S
MOLINE         FAIR      92  69  47 VRB5      29.74F HX  97
ROCKFORD       FAIR      88  64  44 NW8       29.77F
PEORIA         FAIR      89  65  44 W14       29.77F HX  91
$$

NOTE: "FAIR" INDICATES FEW OR NO CLOUDS BELOW 12,000 FEET WITH NO
SIGNIFICANT WEATHER AND/OR OBSTRUCTIONS TO VISIBILITY. WIND
SPEEDS ARE IN MILES-PER-HOUR.




USA.gov is the U.S. government's official web portal to all federal, state and local government web resources and services.